Theta_e
323 323 324 323 323 323 323 323 323 323 322 322 322 323 323 322 319 303 300 310 320 330 320 305 304 303 302 300 301 299 290 287 289 290 291 296 295 299 300 297 299 298 299 300 303
323 323 323 323 323 323 323 323 323 323 322 321 322 322 322 321 303 300 312 325 326 327 306 303 300 299 296 296 297 294 289 290 294 294 292 292 294 295 295 294 294 295 299 301 302
325 324 323 323 322 323 323 322 323 322 321 320 320 321 320 318 298 298 321 325 324 317 307 305 301 299 295 296 294 295 291 294 295 296 296 293 292 295 292 291 293 292 295 299 300
326 325 324 322 322 322 322 322 322 321 320 319 320 320 320 307 288 300 322 322 321 309 305 301 298 295 293 292 294 291 294 295 296 298 297 295 294 291 293 293 296 297 298 299 299
325 325 324 322 322 322 322 322 321 320 320 319 319 319 307 296 296 304 317 312 307 306 302 300 296 295 291 293 293 291 292 296 297 297 296 296 293 292 292 295 297 298 297 297 297
325 324 324 323 322 322 322 322 319 320 320 320 319 320 298 291 301 303 304 305 306 304 302 301 299 297 294 293 291 292 292 295 296 295 295 291 290 292 293 295 296 295 295 296 295
325 324 323 323 322 321 320 321 319 320 321 319 320 305 298 296 302 302 305 303 305 305 301 304 303 297 295 292 294 293 290 292 294 295 291 292 288 287 292 294 292 293 295 295 295
325 324 323 322 321 320 319 319 318 319 320 321 321 298 294 304 302 302 303 302 305 307 306 305 305 297 295 295 290 288 288 286 291 293 291 293 286 289 291 291 289 291 293 293 294
324 323 323 322 320 318 317 318 316 317 319 318 301 295 291 308 299 301 302 301 302 303 303 301 296 291 291 286 283 283 282 283 286 291 290 289 286 288 291 289 287 288 291 291 292
323 322 321 321 319 317 314 316 313 311 306 302 300 291 295 294 299 301 302 302 299 298 297 294 289 286 285 283 278 280 281 282 282 287 288 286 285 288 289 287 285 286 289 289 289
323 321 321 320 318 316 306 299 296 294 298 293 293 292 295 300 301 299 301 299 297 293 288 290 286 282 284 284 284 283 282 281 283 288 287 285 285 286 287 285 284 284 285 286 287
322 321 320 319 316 314 303 297 296 296 291 298 297 297 299 299 293 296 299 293 292 287 288 286 283 285 287 287 284 284 282 282 284 287 287 285 284 286 285 284 283 283 283 284 285
321 320 319 316 313 305 301 299 303 300 289 292 297 296 295 297 293 295 296 293 290 286 286 284 286 288 287 284 283 282 282 282 283 286 286 284 283 284 285 284 284 283 283 284 284
321 320 318 314 307 300 298 303 303 302 287 290 292 295 296 295 291 298 296 294 289 285 286 285 287 285 284 283 283 281 284 285 284 283 279 284 278 281 284 283 282 281 281 282 282
320 319 317 311 301 298 301 303 302 297 279 291 292 299 295 292 291 293 296 293 287 286 285 284 284 283 283 283 284 283 286 285 285 282 281 281 279 282 283 282 282 280 280 281 282
319 318 316 307 302 301 303 302 298 289 278 287 292 290 290 290 290 291 291 292 291 287 285 284 288 286 284 285 285 287 285 284 284 282 277 280 280 281 280 283 281 280 280 280 280
318 316 310 305 300 303 302 297 289 283 288 287 287 289 286 285 287 287 286 285 282 281 280 283 284 286 286 284 286 285 282 277 276 277 276 280 279 282 283 284 283 280 279 279 280
316 312 308 304 302 301 299 293 284 284 284 288 288 286 284 285 285 285 284 282 284 282 279 278 279 284 285 283 282 283 281 277 273 273 275 280 277 282 285 282 282 281 280 280 279
313 304 303 303 302 300 296 285 284 284 286 286 287 284 284 285 283 285 280 282 283 283 279 278 279 284 284 284 285 282 280 282 278 277 275 277 280 281 281 280 280 279 279 279 279
302 301 304 302 300 298 292 288 284 287 288 286 283 282 280 282 284 282 280 283 285 285 283 280 277 282 284 284 285 283 284 279 279 274 272 276 276 279 280 280 280 279 279 279 279
301 300 306 301 301 296 288 286 286 289 289 286 283 282 281 281 281 280 280 283 286 285 284 281 279 280 282 281 281 282 281 280 280 278 275 272 277 285 285 284 282 281 280 279 279
300 294 305 303 296 289 288 287 292 288 289 287 285 284 281 282 281 280 280 282 286 287 283 281 279 276 280 282 283 282 280 281 278 277 277 276 277 285 285 285 285 282 281 279 279
297 296 303 302 291 290 290 291 288 288 287 286 285 286 285 282 281 283 283 288 289 286 285 285 279 276 281 281 282 280 281 281 281 281 277 276 278 284 284 283 283 281 280 279 279
297 293 296 292 288 289 287 288 287 289 287 287 286 286 284 285 285 283 284 289 290 286 296 290 281 280 279 282 281 280 282 282 281 276 277 279 281 285 284 284 282 280 280 279 278
295 292 290 290 291 287 287 286 286 288 288 287 286 286 286 285 286 283 284 285 290 291 286 286 280 280 280 280 280 280 281 281 279 281 277 281 280 284 285 285 284 282 279 277 277
296 294 290 289 288 287 289 286 287 289 289 288 286 288 286 286 290 290 289 286 288 284 284 285 281 280 280 282 281 279 281 281 281 281 280 281 280 285 283 284 281 279 278 277 278
293 291 297 292 287 288 288 288 289 289 292 291 289 289 288 290 290 291 290 290 290 287 284 284 282 281 278 279 279 277 281 281 281 281 281 279 282 280 282 282 280 278 278 277 277
Wind_Speed
15 15 16 15 14 13 12 11 9 9 8 7 7 7 9 11 6 5 7 5 8 13 9 5 5 6 6 5 5 2 5 2 2 3 2 4 2 4 2 2 2 4 2 10 18
16 16 16 16 14 13 12 11 9 8 7 5 5 4 6 7 4 8 4 10 12 11 6 7 6 6 5 4 4 5 4 3 3 5 3 4 3 2 2 6 3 8 10 13 16
17 18 18 16 15 13 12 10 8 7 5 3 2 3 4 3 6 4 10 12 11 7 1 2 2 4 6 3 6 2 4 4 2 5 8 5 5 4 4 3 5 17 22 19 16
18 18 19 17 16 16 13 10 7 6 4 3 2 1 3 1 2 4 12 12 9 7 4 5 6 5 5 5 4 6 4 3 4 6 5 4 7 4 7 5 12 12 13 13 15
18 19 19 17 16 16 14 9 6 5 3 4 4 3 2 7 0 5 11 9 4 4 6 4 7 3 4 3 3 5 1 5 6 8 6 8 3 4 5 8 9 8 11 14 14
18 19 19 18 15 15 13 7 4 5 4 5 2 2 5 6 3 5 7 4 5 5 6 7 3 2 6 3 4 1 4 5 3 4 3 4 2 2 3 11 10 10 13 15 16
18 19 20 20 17 15 14 5 3 4 4 2 3 2 9 6 1 4 6 2 2 2 3 1 2 3 3 3 1 3 4 1 3 3 3 4 1 2 4 9 11 13 13 14 14
19 19 20 21 19 16 13 3 2 2 2 3 4 4 4 1 1 3 5 2 3 3 4 1 4 6 4 3 5 4 4 1 3 6 2 3 4 2 4 7 11 13 13 13 13
18 19 20 21 20 17 9 2 3 3 3 4 3 5 2 2 3 4 3 2 2 2 5 3 5 4 5 4 4 6 2 3 4 3 4 4 3 3 3 6 10 13 12 12 13
17 18 19 20 19 18 6 1 5 2 4 1 2 5 5 3 4 4 3 2 4 2 4 7 6 5 4 5 1 3 3 3 5 3 3 3 4 3 2 6 7 9 10 11 13
17 18 18 18 15 16 5 4 7 7 11 4 1 4 3 6 1 4 3 2 2 8 5 5 7 2 2 2 3 1 2 4 5 1 2 5 4 6 3 4 6 8 11 11 11
16 17 18 18 8 17 5 7 1 1 4 0 1 3 2 1 3 5 3 4 5 3 2 6 3 1 1 2 2 3 2 5 5 2 3 2 8 5 4 2 2 3 8 12 13
15 18 19 18 2 7 6 3 3 1 4 3 2 2 3 4 2 7 4 2 4 3 3 4 2 0 0 2 5 3 3 3 4 3 1 2 5 3 2 3 3 4 4 7 11
14 17 19 18 6 1 4 5 2 0 6 9 6 5 3 2 3 2 3 1 4 2 1 0 2 1 1 2 4 4 2 3 5 3 3 2 6 3 5 4 1 2 5 7 9
14 15 15 11 1 4 3 3 2 2 5 5 6 3 5 6 4 6 3 4 2 3 3 2 3 3 2 1 4 6 2 3 2 2 3 1 1 2 4 7 7 3 2 4 6
15 14 13 3 3 1 2 1 2 8 3 5 3 7 5 7 8 8 6 8 0 3 3 1 3 2 2 2 2 4 2 3 3 2 1 3 3 4 6 5 5 3 3 2 4
17 15 3 1 0 1 1 3 7 7 3 6 4 6 1 6 6 8 6 8 5 6 8 7 3 3 1 4 1 7 5 4 5 3 4 4 2 8 4 3 4 8 6 3 4
15 5 3 2 0 1 2 5 8 1 2 2 3 3 4 6 4 8 3 6 5 5 3 5 8 3 4 2 2 3 2 3 4 3 5 1 6 5 2 5 6 7 6 5 4
10 3 1 1 1 2 5 8 2 2 2 4 2 6 5 4 3 6 4 2 1 4 4 5 6 4 2 2 2 2 2 1 2 1 2 4 7 1 2 2 4 7 6 4 4
2 2 3 4 2 3 7 4 3 1 0 0 3 2 3 5 6 5 3 1 2 2 2 0 6 1 3 0 2 1 2 2 2 5 5 6 5 6 5 9 9 9 9 6 4
3 3 3 5 2 6 5 1 0 0 1 3 1 1 1 2 1 3 3 2 1 2 2 2 3 6 2 3 3 1 1 1 1 3 3 6 7 4 4 5 13 13 10 10 7
2 3 3 2 6 2 3 0 0 1 2 1 3 1 1 1 2 2 2 2 1 1 2 1 3 5 9 1 1 2 4 4 3 4 3 2 11 0 2 5 7 11 12 11 11
3 2 3 3 4 3 2 1 1 1 2 2 1 1 2 2 2 3 3 3 3 4 3 3 1 5 8 1 1 3 4 3 2 1 7 4 10 2 2 1 4 10 13 14 13
3 3 5 6 1 4 3 2 2 2 1 0 1 1 0 2 2 3 3 1 0 2 1 4 2 7 7 5 2 10 7 5 6 5 6 19 22 18 10 7 9 10 12 12 13
4 0 1 2 4 2 1 1 1 2 1 0 1 3 4 2 3 4 4 4 2 2 3 4 6 6 11 10 10 20 18 12 14 19 11 25 13 21 12 8 10 11 11 12 12
3 3 2 1 1 1 2 1 1 3 2 2 2 1 3 5 8 10 5 4 7 1 4 1 4 4 8 11 8 13 14 14 17 18 17 21 26 13 4 3 4 11 15 14 13
0 1 3 0 1 2 2 2 2 0 2 3 4 2 4 11 9 8 7 7 6 6 5 4 3 2 6 0 6 10 11 7 3 5 5 8 9 0 3 4 1 5 10 12 13
Wind_Direction
0 358 354 352 347 346 344 339 333 317 311 313 315 329 341 340 333 35 38 294 328 337 346 318 32 15 40 57 37 95 65 86 137 144 133 343 109 9 279 51 68 64 339 319 320
357 356 355 351 346 344 344 343 339 326 315 308 308 326 336 337 80 55 309 331 334 353 12 26 14 20 52 24 25 70 91 135 169 138 117 54 83 348 333 9 336 327 327 324 326
0 357 356 352 345 343 345 347 343 340 347 340 329 329 329 314 66 324 335 346 342 355 129 64 66 58 58 28 357 51 125 158 29 114 131 109 57 34 352 10 349 319 323 335 334
1 358 358 354 346 343 349 347 349 358 20 55 80 26 327 320 82 276 341 347 359 14 48 37 32 48 61 52 347 85 50 126 133 130 126 114 129 83 55 314 302 304 313 328 343
360 358 357 355 347 341 347 347 1 19 73 112 133 134 123 48 54 312 338 351 15 38 46 43 50 72 80 65 53 70 55 50 80 93 86 117 83 141 21 329 310 333 344 352 347
357 354 353 353 351 345 347 348 23 53 93 123 147 212 95 80 283 337 339 27 29 40 22 37 97 113 96 70 76 15 62 117 129 110 120 113 78 167 346 336 352 351 0 355 351
356 353 350 349 351 352 355 5 38 67 91 51 3 92 67 172 341 343 20 30 28 73 94 45 130 98 137 111 266 130 89 73 166 179 144 122 308 49 333 345 352 0 3 356 350
354 352 350 349 345 349 352 27 51 41 39 3 348 67 76 342 255 22 343 49 24 59 110 119 85 100 65 122 32 68 57 53 199 159 154 173 271 175 5 3 354 354 359 357 355
351 350 348 347 340 342 352 14 347 322 336 340 42 89 63 350 25 313 357 21 342 34 40 81 69 79 36 68 28 8 240 229 296 178 126 181 225 147 40 21 3 352 349 355 357
350 348 346 346 336 338 348 6 340 8 348 24 65 46 7 311 304 335 337 37 61 31 19 40 47 67 38 50 302 285 314 275 253 208 170 185 218 161 69 50 13 345 336 360 356
346 342 344 349 343 350 18 23 19 355 39 86 150 137 331 300 285 3 4 14 24 49 40 5 66 23 300 182 156 214 230 251 262 249 255 231 236 187 144 61 25 358 343 348 351
342 340 343 344 355 359 58 72 179 302 72 264 293 316 271 337 15 347 15 60 49 54 356 25 76 256 184 150 174 212 257 268 274 201 231 218 257 170 155 125 92 12 349 347 348
342 340 336 340 340 37 68 52 321 155 93 10 18 8 335 12 50 323 31 61 66 52 29 131 199 206 320 341 5 303 214 267 256 297 194 316 273 169 176 146 121 65 2 354 1
348 343 338 335 51 304 51 324 351 291 74 324 351 0 350 11 39 316 6 93 35 72 61 36 313 17 325 259 129 297 216 265 280 334 268 48 298 233 186 198 202 27 15 5 2
344 340 342 20 212 50 314 315 126 65 49 317 324 308 337 69 296 346 357 22 69 356 75 302 358 346 305 263 167 238 294 252 248 220 6 318 203 238 153 224 207 165 58 9 1
336 335 334 15 45 33 342 92 63 47 279 349 349 350 19 13 354 320 22 38 84 84 2 275 280 235 273 334 189 299 304 50 54 83 337 242 162 251 193 208 155 165 152 45 18
332 329 12 77 349 326 69 56 44 93 329 329 336 12 25 339 349 23 20 12 34 23 6 337 313 304 354 346 17 27 27 346 360 2 243 201 194 262 182 179 157 168 161 116 43
328 351 1 95 206 127 72 55 70 239 359 347 355 327 52 7 17 349 32 21 23 50 54 22 335 359 349 59 300 8 73 112 307 302 295 354 245 278 56 97 111 134 146 127 77
335 351 30 260 173 114 76 52 170 201 258 355 352 52 344 9 18 24 26 13 297 31 42 8 285 317 13 2 85 10 22 200 268 261 358 259 291 165 96 159 172 165 171 158 123
29 358 285 331 130 78 71 147 182 218 358 113 76 48 347 323 22 34 348 276 358 80 132 234 301 272 290 79 47 122 165 348 25 325 301 291 283 260 237 222 205 204 195 183 157
44 49 265 345 98 49 92 172 184 118 38 49 152 28 37 319 326 307 289 302 27 26 85 126 131 287 335 195 181 32 322 69 148 167 262 309 265 214 215 201 205 198 190 173 179
65 40 312 15 51 41 84 186 307 25 37 63 97 104 202 295 280 277 275 261 333 90 15 11 160 279 243 238 351 201 226 168 139 265 237 180 268 178 257 265 209 180 172 169 168
71 282 320 58 82 25 320 47 70 42 25 59 114 222 201 236 283 212 243 225 204 177 151 167 277 319 327 34 61 227 213 195 99 79 211 215 262 185 225 179 183 176 178 169 165
75 28 340 46 34 106 31 22 350 29 60 68 180 138 147 282 243 291 289 282 304 226 255 158 187 196 238 254 279 267 237 211 194 229 246 240 273 263 260 227 197 191 184 177 169
29 72 182 355 13 82 96 46 344 323 115 174 269 225 190 255 287 246 234 288 249 242 136 181 232 207 259 261 259 268 270 247 226 245 236 269 257 273 283 256 217 193 159 168 173
113 130 13 107 6 67 6 161 192 304 207 229 204 314 220 225 206 269 240 186 233 163 176 195 262 211 267 253 261 267 262 250 241 250 249 260 270 290 293 306 162 177 170 174 170
217 18 110 342 89 105 223 177 207 141 253 221 194 319 262 246 243 246 229 225 225 185 194 206 232 315 263 70 295 284 256 207 200 202 185 207 236 220 294 323 271 185 178 172 162